Location: Newark
(26.8229°N, 81.7649°W)
Time: 11:36:30
(UTC+00:00)

N. Korean satellite - Pass Details

Date: 20 January 2020
Orbit: 456 x 505 km, 97.2° (Epoch: 23 February)

Event Time Altitude Azimuth Distance (km) Brightness Sun altitude
Rises 11:04:45 0° 11° (N) 2,524 10.2 -16.1°
Reaches altitude 10° 11:06:48 10° 12° (NNE) 1,651 9.2 -15.6°
Maximum altitude 11:10:21 87° 100° (E) 488 6.5 -14.8°
Drops below altitude 10° 11:13:57 10° 191° (S) 1,670 9.3 -14.1°
Sets 11:16:02 0° 191° (S) 2,556 10.3 -13.6°
